Monument Pass, CO

12:30 AM MDT on March 27, 2017 (GMT -0600)
Monument Pass

Weather History for KMNH - February, 2014

Change the Weather History Date:

Friday, February 21, 2014

  Actual Average Record
Temperature  
Mean Temperature 28 °F -  
Max Temperature 41 °F - 63 °F (2017)
Min Temperature 15 °F - 5 °F (2013)
Degree Days  
Heating Degree Days 37    
Month to date heating degree days  
Cooling Degree Days 0    
Month to date cooling degree days  
Moisture  
Dew Point 7 °F    
Average Humidity 40    
Maximum Humidity 62    
Minimum Humidity 26    
Precipitation  
Precipitation 0.00 in - 0.07 in (2015)
Sea Level Pressure  
Sea Level Pressure 29.85 in    
Wind  
Wind Speed 10 mph (West)    
Max Wind Speed 28 mph    
Max Gust Speed 38 mph    
Visibility 10 miles    
Events      
T = Trace of Precipitation, MM = Missing Value Source: NWS Daily Summary

Daily Weather History Graph

Daily Weather History Graph

Search for Another Location

Airport or City:

Trip Planner

Search our weather history database for the weather conditions in past years. The results will help you decide how hot, cold, wet, or windy it might be!

Date:

Astronomy

Feb. 21, 2014 Rise Set
Actual Time 6:42 AM MST 5:42 PM MST
Civil Twilight 6:15 AM MST 6:09 PM MST
Nautical Twilight 5:44 AM MST 6:40 PM MST
Astronomical Twilight 5:13 AM MST 7:11 PM MST
Moon No Moon Rise 10:11 AM MST (2/21)
Length of Visible Light 11h 54m
Length of Day
11h 00m
Waning Gibbous, 60% of the Moon is Illuminated
Feb 21
Waning Gibbous
Feb 22
Last Quarter
Mar 1
New
Mar 8
First Quarter
Mar 16
Full

Hourly Weather History & Observations

Time (MST) Temp. Windchill Dew Point Humidity Pressure Visibility Wind Dir Wind Speed Gust Speed Precip Events Conditions
12:11 AM 19.4 °F 9.5 °F -0.4 °F 42% 29.83 in 10.0 mi West 8.1 mph - N/A   Clear
12:30 AM 21.2 °F 12.6 °F 1.4 °F 42% 29.84 in 10.0 mi WSW 6.9 mph - N/A   Clear
12:50 AM 21.2 °F 9.5 °F 3.2 °F 46% 29.83 in 10.0 mi West 11.5 mph - N/A   Clear
1:11 AM 21.2 °F 12.6 °F 1.4 °F 42% 29.82 in 10.0 mi West 6.9 mph - N/A   Clear
1:31 AM 23.0 °F 14.7 °F 1.4 °F 39% 29.82 in 10.0 mi WSW 6.9 mph - N/A   Clear
1:51 AM 23.0 °F 18.4 °F 1.4 °F 39% 29.83 in 10.0 mi WNW 3.5 mph - N/A   Clear
2:11 AM 19.4 °F - 1.4 °F 46% 29.83 in 10.0 mi Calm Calm - N/A   Clear
2:31 AM 17.6 °F - 1.4 °F 49% 29.83 in 10.0 mi Calm Calm - N/A   Clear
2:51 AM 23.0 °F 18.4 °F -0.4 °F 36% 29.83 in 10.0 mi North 3.5 mph - N/A   Clear
3:10 AM 23.0 °F 17.0 °F 3.2 °F 43% 29.82 in 10.0 mi North 4.6 mph - N/A   Clear
3:31 AM 19.4 °F - 1.4 °F 46% 29.82 in 10.0 mi Calm Calm - N/A   Clear
3:51 AM 23.0 °F 18.4 °F 3.2 °F 43% 29.83 in 10.0 mi SW 3.5 mph - N/A   Clear
4:11 AM 21.2 °F 12.6 °F 5.0 °F 50% 29.83 in 10.0 mi SW 6.9 mph - N/A   Clear
4:31 AM 23.0 °F 13.1 °F 6.8 °F 50% 29.84 in 10.0 mi WNW 9.2 mph - N/A   Clear
4:51 AM 19.4 °F 14.3 °F 5.0 °F 54% 29.85 in 10.0 mi SW 3.5 mph - N/A   Clear
5:11 AM 19.4 °F 11.5 °F 5.0 °F 54% 29.86 in 10.0 mi East 5.8 mph - N/A   Clear
5:31 AM 19.4 °F - 5.0 °F 54% 29.85 in 10.0 mi Calm Calm - N/A   Clear
5:51 AM 15.8 °F 8.6 °F 5.0 °F 62% 29.85 in 10.0 mi South 4.6 mph - N/A   Clear
6:11 AM 19.4 °F - 5.0 °F 54% 29.86 in 10.0 mi Calm Calm - N/A   Clear
6:31 AM 21.2 °F 14.9 °F 5.0 °F 50% 29.86 in 10.0 mi ENE 4.6 mph - N/A   Clear
6:50 AM 26.6 °F 22.6 °F 6.8 °F 43% 29.86 in 10.0 mi ENE 3.5 mph 16.1 mph N/A   Clear
7:10 AM 24.8 °F 19.1 °F 6.8 °F 46% 29.86 in 10.0 mi NW 4.6 mph - N/A   Clear
7:30 AM 24.8 °F 13.4 °F 8.6 °F 50% 29.87 in 10.0 mi WNW 12.7 mph - N/A   Clear
7:51 AM 28.4 °F 15.8 °F 8.6 °F 43% 29.87 in 10.0 mi WNW 18.4 mph 27.6 mph N/A   Clear
8:11 AM 30.2 °F 16.8 °F 8.6 °F 40% 29.87 in 10.0 mi WNW 23.0 mph 27.6 mph N/A   Clear
8:30 AM 32.0 °F 20.8 °F 8.6 °F 38% 29.87 in 10.0 mi WNW 17.3 mph - N/A   Clear
8:51 AM 32.0 °F 19.8 °F 8.6 °F 38% 29.87 in 10.0 mi WNW 20.7 mph 32.2 mph N/A   Clear
9:11 AM 32.0 °F 18.4 °F 8.6 °F 38% 29.88 in 10.0 mi WNW 26.5 mph 35.7 mph N/A   Clear
9:30 AM 32.0 °F 18.1 °F 8.6 °F 38% 29.87 in 10.0 mi WNW 27.6 mph 38.0 mph N/A   Clear
9:51 AM 33.8 °F 21.6 °F 8.6 °F 35% 29.88 in 10.0 mi WNW 23.0 mph 31.1 mph N/A   Clear
10:11 AM 35.6 °F 25.2 °F 8.6 °F 33% 29.88 in 10.0 mi NW 18.4 mph 24.2 mph N/A   Clear
10:31 AM 35.6 °F 27.1 °F 8.6 °F 33% 29.87 in 10.0 mi WNW 12.7 mph 25.3 mph N/A   Clear
10:50 AM 35.6 °F 25.2 °F 5.0 °F 28% 29.87 in 10.0 mi WNW 18.4 mph 27.6 mph N/A   Clear
11:11 AM 35.6 °F 24.8 °F 5.0 °F 28% 29.86 in 10.0 mi WNW 19.6 mph - N/A   Clear
11:31 AM 37.4 °F 27.8 °F 8.6 °F 30% 29.86 in 10.0 mi WNW 17.3 mph 28.8 mph N/A   Clear
11:51 AM 37.4 °F 27.8 °F 8.6 °F 30% 29.85 in 10.0 mi NW 17.3 mph 21.9 mph N/A   Clear
12:11 PM 39.2 °F 30.5 °F 8.6 °F 28% 29.84 in 10.0 mi WNW 16.1 mph 25.3 mph N/A   Clear
12:31 PM 41.0 °F 31.6 °F 10.4 °F 29% 29.84 in 10.0 mi West 20.7 mph 25.3 mph N/A   Clear
12:51 PM 41.0 °F 31.9 °F 10.4 °F 29% 29.82 in 10.0 mi West 19.6 mph 27.6 mph N/A   Clear
1:10 PM 41.0 °F 31.4 °F 10.4 °F 29% 29.81 in 10.0 mi West 21.9 mph 27.6 mph N/A   Clear
1:30 PM 41.0 °F 32.5 °F 10.4 °F 29% 29.81 in 10.0 mi West 17.3 mph 29.9 mph N/A   Clear
1:51 PM 41.0 °F 31.6 °F 10.4 °F 29% 29.81 in 10.0 mi West 20.7 mph 29.9 mph N/A   Clear
2:11 PM 41.0 °F 31.6 °F 10.4 °F 29% 29.81 in 10.0 mi West 20.7 mph 28.8 mph N/A   Clear
2:31 PM 41.0 °F 31.9 °F 8.6 °F 26% 29.82 in 10.0 mi West 19.6 mph 32.2 mph N/A   Clear
2:51 PM 41.0 °F 31.6 °F 8.6 °F 26% 29.82 in 10.0 mi West 20.7 mph 27.6 mph N/A   Clear
3:11 PM 41.0 °F 32.8 °F 10.4 °F 29% 29.82 in 10.0 mi West 16.1 mph 23.0 mph N/A   Clear
3:31 PM 41.0 °F 32.5 °F 10.4 °F 29% 29.82 in 10.0 mi West 17.3 mph - N/A   Clear
3:50 PM 39.2 °F 31.6 °F 10.4 °F 31% 29.83 in 10.0 mi WNW 12.7 mph 21.9 mph N/A   Clear
4:11 PM 37.4 °F 29.8 °F 10.4 °F 33% 29.83 in 10.0 mi WNW 11.5 mph - N/A   Clear
4:31 PM 35.6 °F 28.0 °F 10.4 °F 35% 29.84 in 10.0 mi WNW 10.4 mph - N/A   Clear
4:50 PM 35.6 °F 23.7 °F 8.6 °F 33% 29.84 in 10.0 mi WNW 24.2 mph 27.6 mph N/A   Clear
5:11 PM 35.6 °F 26.2 °F 6.8 °F 30% 29.84 in 10.0 mi WNW 15.0 mph 28.8 mph N/A   Clear
5:31 PM 32.0 °F 24.2 °F 10.4 °F 41% 29.85 in 10.0 mi WNW 9.2 mph - N/A   Clear
5:51 PM 30.2 °F 22.6 °F 10.4 °F 44% 29.85 in 10.0 mi West 8.1 mph - N/A   Clear
6:11 PM 30.2 °F 26.7 °F 8.6 °F 40% 29.86 in 10.0 mi West 3.5 mph - N/A   Clear
6:31 PM 30.2 °F - 10.4 °F 44% 29.86 in 10.0 mi Calm Calm - N/A   Clear
6:51 PM 26.6 °F - 8.6 °F 47% 29.87 in 10.0 mi Calm Calm - N/A   Clear
7:10 PM 30.2 °F 24.3 °F 8.6 °F 40% 29.87 in 10.0 mi SSW 5.8 mph - N/A   Clear
7:30 PM 32.0 °F 24.8 °F 8.6 °F 38% 29.87 in 10.0 mi SSW 8.1 mph - N/A   Clear
7:51 PM 32.0 °F 23.6 °F 5.0 °F 32% 29.87 in 10.0 mi SW 10.4 mph - N/A   Clear
8:11 PM 32.0 °F 24.2 °F 8.6 °F 38% 29.87 in 10.0 mi SW 9.2 mph - N/A   Clear
8:31 PM 30.2 °F 20.2 °F 10.4 °F 44% 29.86 in 10.0 mi WSW 12.7 mph - N/A   Clear
8:51 PM 30.2 °F 20.2 °F 8.6 °F 40% 29.86 in 10.0 mi WSW 12.7 mph - N/A   Clear
9:10 PM 30.2 °F 20.2 °F 10.4 °F 44% 29.85 in 10.0 mi WSW 12.7 mph - N/A   Clear
9:31 PM 30.2 °F 21.3 °F 10.4 °F 44% 29.86 in 10.0 mi WSW 10.4 mph - N/A   Clear
9:51 PM 28.4 °F 18.5 °F 10.4 °F 47% 29.86 in 10.0 mi WSW 11.5 mph - N/A   Clear
10:11 PM 28.4 °F 19.7 °F 10.4 °F 47% 29.85 in 10.0 mi WSW 9.2 mph - N/A   Clear
10:31 PM 26.6 °F 18.2 °F 10.4 °F 51% 29.85 in 10.0 mi WSW 8.1 mph - N/A   Clear
10:51 PM 28.4 °F 21.2 °F 10.4 °F 47% 29.85 in 10.0 mi WSW 6.9 mph - N/A   Clear
11:11 PM 28.4 °F 24.6 °F 8.6 °F 43% 29.85 in 10.0 mi West 3.5 mph - N/A   Clear
11:31 PM 28.4 °F 21.2 °F 10.4 °F 47% 29.85 in 10.0 mi WSW 6.9 mph - N/A   Clear
11:50 PM 30.2 °F 20.2 °F 10.4 °F 44% 29.84 in 10.0 mi WSW 12.7 mph - N/A   Clear